Home   Weather   Chester   Past weeks

Flag for United Kingdom Past Weather in Chester, England, United Kingdom — Yesterday and Last 2 Weeks

61 °F

Partly sunny.

Feels Like: 61 °F
Forecast: 55 / 60 °F
Wind: 16 mph from Southwest

Location: Hawarden Airport

Current Time: Oct 27, 2016 at 3:55:52 PM

Latest Report: Oct 27, 2016 at 3:20 PM

Visibility: N/A

Pressure: 30.36 "Hg

Humidity: 72%

Dew Point: 52 °F

Location of ChesterLocation

Past Weather in Chester — Graph


Chester Temperature Yesterday

Maximum temperature yesterday: 64 °F (at 12:50 PM)
Minimum temperature yesterday: 50 °F (at 6:50 AM)
Average temperature yesterday: 57 °F

High & Low Weather Summary for the Past Weeks

High64 °F (Oct 26, 12:50 PM)100% (Oct 14, 8:50 AM)30.39 "Hg (Oct 14, 8:50 AM)
Low36 °F (Oct 22, 8:20 AM)56% (Oct 17, 1:50 PM)29.65 "Hg (Oct 15, 8:20 AM)
Average53 °F82%30.06 "Hg
* Reported Oct 12 2:20 PM — Oct 27 2:20 PM, Chester, Weather by CustomWeather, © 2016

Note: Actual official high and low records may vary slightly from our data, if they occured in-between our weather recording intervals... More about our weather records


Chester Weather History for the Previous 24 Hours

Scroll right to see more
Time TempWeatherWind HumidityBarometerVisibility
2:20 PM
Thu, Oct 27
59 °FPartly sunny.17 mph77%30.39 "HgN/A
1:50 PM59 °FPartly sunny.10 mph77%30.36 "HgN/A
1:20 PM59 °FOvercast.12 mph77%30.36 "HgN/A
12:50 PM57 °FOvercast.9 mph82%30.36 "HgN/A
12:20 PM57 °FPartly sunny.14 mph82%30.39 "HgN/A
11:50 AM59 °FPartly sunny.9 mph77%30.39 "HgN/A
11:20 AM57 °FPartly sunny.13 mph82%30.39 "HgN/A
10:50 AM57 °FPartly sunny.8 mph88%30.39 "HgN/A
10:20 AM59 °FPartly sunny.9 mph77%30.39 "HgN/A
9:50 AM59 °FPartly sunny.7 mph77%30.39 "HgN/A
9:20 AM57 °FPartly sunny.7 mph77%30.39 "HgN/A
8:50 AM57 °FPartly sunny.8 mph82%30.39 "HgN/A
8:20 AM57 °FPartly sunny.5 mph77%30.39 "HgN/A
7:50 AM57 °FPassing clouds.3 mph77%30.36 "HgN/A
7:20 AM54 °FPassing clouds.6 mph94%30.36 "HgN/A
6:50 AM54 °FPassing clouds.7 mph94%30.36 "HgN/A
6:20 AM55 °FPassing clouds.7 mph88%30.39 "HgN/A
5:50 AM55 °FPassing clouds.6 mph88%30.39 "HgN/A
8:50 PM
Wed, Oct 26
57 °FPassing clouds.12 mph77%30.36 "HgN/A
8:20 PM55 °FPassing clouds.12 mph82%30.36 "HgN/A
7:50 PM57 °FPassing clouds.10 mph77%30.36 "HgN/A
7:20 PM57 °FPassing clouds.13 mph77%30.36 "HgN/A
6:50 PM57 °FPassing clouds.13 mph77%30.33 "HgN/A
6:20 PM57 °FPassing clouds.14 mph77%30.33 "HgN/A
5:50 PM59 °FPassing clouds.15 mph72%30.33 "HgN/A
5:20 PM59 °FScattered clouds.12 mph72%30.33 "HgN/A
4:50 PM59 °FScattered clouds.10 mph68%30.33 "HgN/A
4:20 PM59 °FScattered clouds.10 mph72%30.30 "HgN/A
3:50 PM59 °FScattered clouds.10 mph68%30.30 "HgN/A
3:20 PM61 °FScattered clouds.13 mph68%30.30 "HgN/A
Weather by CustomWeather, © 2016

See weather overviewHow to use our weather pages